Fowler
DateTemperatureDew Point
09/03 - 05:00 PM80.6°57.7°
09/03 - 04:45 PM80.8°57.0°
09/03 - 04:30 PM81.3°57.6°
09/03 - 04:15 PM81.6°56.9°
09/03 - 04:00 PM81.9°56.9°
09/03 - 03:45 PM82.1°57.1°
09/03 - 03:30 PM82.5°56.5°
09/03 - 03:15 PM82.5°57.0°
09/03 - 03:00 PM82.7°57.1°
09/03 - 02:45 PM82.8°57.9°
09/03 - 02:30 PM82.8°57.2°
09/03 - 02:15 PM82.7°57.1°
09/03 - 02:00 PM82.8°57.7°
09/03 - 01:45 PM82.6°58.3°
09/03 - 01:30 PM81.4°57.6°
09/03 - 01:15 PM81.1°57.9°
09/03 - 01:00 PM81.4°58.9°
09/03 - 12:45 PM81.2°59.3°
09/03 - 12:30 PM80.6°58.1°
09/03 - 12:15 PM80.5°58.7°
09/03 - 12:00 PM78.8°58.0°
09/03 - 11:45 AM77.8°57.4°
09/03 - 11:30 AM77.5°58.8°
09/03 - 11:15 AM76.1°57.4°
09/03 - 11:00 AM74.6°56.9°
09/03 - 10:45 AM73.3°56.9°
09/03 - 10:30 AM72.2°56.5°
09/03 - 10:15 AM71.1°55.8°
09/03 - 10:00 AM69.8°55.9°
09/03 - 09:45 AM68.7°56.1°
09/03 - 09:30 AM67.6°55.3°
09/03 - 09:15 AM66.5°55.7°
09/03 - 09:00 AM65.7°54.9°
09/03 - 08:45 AM64.9°55.0°
09/03 - 08:30 AM64.0°54.2°
09/03 - 08:15 AM63.2°53.9°
09/03 - 08:00 AM62.2°53.8°
09/03 - 07:45 AM61.2°53.4°
09/03 - 07:30 AM60.0°53.0°
09/03 - 07:15 AM58.3°52.9°
09/03 - 07:00 AM56.9°52.8°
09/03 - 06:45 AM56.2°52.4°
09/03 - 06:30 AM55.7°51.6°
09/03 - 06:15 AM55.6°51.0°
09/03 - 06:00 AM56.0°50.8°
09/03 - 05:45 AM56.5°50.9°
09/03 - 05:30 AM57.2°51.2°
09/03 - 05:15 AM57.9°51.4°
09/03 - 05:00 AM58.9°51.8°
09/03 - 04:45 AM59.9°52.1°
09/03 - 04:30 AM60.5°52.1°
09/03 - 04:15 AM60.7°52.3°
09/03 - 04:00 AM60.9°52.6°
09/03 - 03:45 AM61.1°52.7°
09/03 - 03:30 AM61.3°52.6°
09/03 - 03:15 AM61.7°52.7°
09/03 - 03:00 AM61.9°52.7°
09/03 - 02:45 AM62.3°52.8°
09/03 - 02:30 AM63.1°52.9°
09/03 - 02:15 AM63.8°52.8°
09/03 - 02:00 AM64.1°52.5°
09/03 - 01:45 AM64.7°52.6°
09/03 - 01:30 AM65.1°52.7°
09/03 - 01:15 AM65.4°52.9°
09/03 - 01:00 AM65.7°53.3°
09/03 - 12:45 AM65.8°53.5°
09/03 - 12:30 AM65.2°53.1°
09/03 - 12:15 AM65.4°53.2°
09/03 - 12:00 AM65.9°53.4°
09/02 - 11:45 PM66.3°53.2°
09/02 - 11:30 PM66.7°53.4°
09/02 - 11:15 PM66.9°53.2°
09/02 - 11:00 PM67.5°53.3°
09/02 - 10:45 PM68.2°53.3°
09/02 - 10:30 PM68.3°52.8°
09/02 - 10:15 PM68.2°51.8°
09/02 - 10:00 PM68.0°51.0°
09/02 - 09:45 PM67.5°50.5°
09/02 - 09:30 PM66.7°50.7°
09/02 - 09:15 PM66.8°51.2°
09/02 - 09:00 PM67.0°51.5°
09/02 - 08:45 PM67.1°51.1°
09/02 - 08:30 PM67.3°52.1°
09/02 - 08:15 PM67.3°51.5°
09/02 - 08:00 PM68.0°53.5°
09/02 - 07:45 PM69.0°53.8°
09/02 - 07:30 PM70.2°53.7°
09/02 - 07:15 PM71.9°54.1°
09/02 - 07:00 PM73.5°53.3°
09/02 - 06:45 PM75.5°53.6°
09/02 - 06:30 PM77.0°52.5°
09/02 - 06:15 PM77.9°51.8°
09/02 - 06:00 PM78.7°50.8°
09/02 - 05:45 PM78.7°51.0°
09/02 - 05:30 PM79.0°54.3°
09/02 - 05:15 PM79.5°53.9°
09/02 - 05:00 PM79.9°53.7°
09/02 - 04:45 PM80.5°55.1°
09/02 - 04:30 PM80.9°54.8°
09/02 - 04:15 PM81.1°54.3°
09/02 - 04:00 PM81.3°55.0°
09/02 - 03:45 PM81.5°54.8°
09/02 - 03:30 PM81.4°54.4°
09/02 - 03:15 PM81.5°54.5°
09/02 - 03:00 PM81.5°54.2°
09/02 - 02:45 PM81.7°54.6°
09/02 - 02:30 PM81.8°55.6°
09/02 - 02:15 PM81.6°54.7°
09/02 - 02:00 PM81.6°55.3°
09/02 - 01:45 PM81.4°55.0°
09/02 - 01:30 PM80.4°55.0°
09/02 - 01:15 PM80.0°54.8°
09/02 - 01:00 PM79.4°54.1°
09/02 - 12:45 PM80.0°55.6°
09/02 - 12:30 PM79.2°55.4°
09/02 - 12:15 PM79.7°54.9°
09/02 - 12:00 PM79.0°55.9°
09/02 - 11:45 AM76.7°55.4°
09/02 - 11:30 AM75.5°55.1°
09/02 - 11:15 AM74.3°55.0°
09/02 - 11:00 AM72.3°54.7°
09/02 - 10:45 AM71.5°54.3°
09/02 - 10:30 AM70.7°54.1°
09/02 - 10:15 AM69.0°54.2°
09/02 - 10:00 AM68.0°54.1°
09/02 - 09:45 AM66.9°53.7°
09/02 - 09:30 AM65.8°53.7°
09/02 - 09:15 AM64.5°53.4°
09/02 - 09:00 AM63.5°53.2°
09/02 - 08:45 AM62.0°52.6°
09/02 - 08:30 AM60.4°51.9°
09/02 - 08:15 AM58.9°51.9°
09/02 - 08:00 AM56.8°51.9°
09/02 - 07:45 AM54.8°52.2°
09/02 - 07:30 AM53.9°51.5°
09/02 - 07:15 AM52.7°50.2°
09/02 - 07:00 AM51.6°48.9°
09/02 - 06:45 AM51.0°48.1°
09/02 - 06:30 AM50.8°47.5°
09/02 - 06:15 AM50.9°47.3°
09/02 - 06:00 AM51.1°47.3°
09/02 - 05:45 AM51.4°47.6°
09/02 - 05:30 AM52.0°47.9°
09/02 - 05:15 AM52.4°48.1°
09/02 - 05:00 AM53.0°48.2°
09/02 - 04:45 AM53.4°48.5°
09/02 - 04:30 AM53.7°48.6°
09/02 - 04:15 AM54.0°48.6°
09/02 - 04:00 AM54.4°48.4°
09/02 - 03:45 AM55.2°48.6°
09/02 - 03:30 AM56.2°49.0°
09/02 - 03:15 AM57.4°49.2°
09/02 - 03:00 AM58.5°49.2°
09/02 - 02:45 AM59.5°49.1°
09/02 - 02:30 AM60.1°49.1°
09/02 - 02:15 AM60.8°49.0°
09/02 - 02:00 AM61.5°48.9°
09/02 - 01:45 AM62.0°48.8°
09/02 - 01:30 AM62.5°48.8°
09/02 - 01:15 AM62.9°48.7°
09/02 - 01:00 AM63.3°48.7°
09/02 - 12:45 AM63.5°48.7°
09/02 - 12:30 AM63.7°48.8°
09/02 - 12:15 AM64.0°48.9°
09/02 - 12:00 AM64.4°49.0°
09/01 - 11:45 PM64.8°49.0°
09/01 - 11:30 PM65.1°49.3°
09/01 - 11:15 PM65.5°49.5°
09/01 - 11:00 PM65.7°49.7°
09/01 - 10:45 PM65.9°50.0°
09/01 - 10:30 PM66.3°49.9°
09/01 - 10:15 PM67.1°49.4°
09/01 - 10:00 PM68.0°49.1°
09/01 - 09:45 PM68.7°48.4°
09/01 - 09:30 PM69.4°48.0°
09/01 - 09:15 PM69.3°47.8°
09/01 - 09:00 PM67.8°48.4°
09/01 - 08:45 PM67.6°49.2°
09/01 - 08:30 PM68.6°50.3°
09/01 - 08:15 PM69.3°49.7°
09/01 - 08:00 PM69.6°49.7°
09/01 - 07:45 PM69.6°49.0°
09/01 - 07:30 PM67.4°49.4°
09/01 - 07:15 PM67.1°51.4°
09/01 - 07:00 PM68.2°54.7°
09/01 - 06:45 PM69.5°55.6°
09/01 - 06:30 PM71.0°56.6°
09/01 - 06:15 PM72.4°56.6°
09/01 - 06:00 PM73.7°58.1°